User: anonymous   Login
Location: Brno
(49.2000°N, 16.6330°E)
Time: 01:27:02
(UTC+02:00)
Language:

Meteor 1-4 Rocket - Orbit

View from above orbital plane
View from above orbital plane
View from above satellite
View from above satellite

Ground track
Ground track

The orbit data is extracted from the following two-line orbital elements,

1 04394U 70037B   17293.21510874  .00001749  00000-0  60607-4 0  9991
2 04394  81.2436 228.0107 0041738  57.9934 302.5346 15.28372774583865
Epoch (UTC): 20 October 2017 05:09:45
Eccentricity: 0.0041738
inclination: 81.2436°
perigee height: 452 km
apogee height: 509 km
right ascension of ascending node: 228.0107°
argument of perigee: 57.9934°
revolutions per day: 15.28372774
mean anomaly at epoch: 302.5346°
orbit number at epoch: 58386

The dashed part of the orbit path shows where the satellite is in the earth's shadow,  

DLR